Bar Harbor, ME

1:45 AM EDT on August 22, 2019 (GMT -0400)
Hancock County-Bar Harbor

Weather History for KBHB - June, 2019

Change the Weather History Date:

Thursday, June 6, 2019

  Actual Average Record
Temperature  
Mean Temperature 62 °F -  
Max Temperature 72 °F 71 °F 86 °F (1968)
Min Temperature 51 °F 49 °F 37 °F (2004)
Degree Days  
Heating Degree Days 4    
Growing Degree Days 12 (Base 50)    
Moisture  
Dew Point 54 °F    
Average Humidity 87    
Maximum Humidity 100    
Minimum Humidity 53    
Precipitation  
Precipitation 0.62 in - - ()
Sea Level Pressure  
Sea Level Pressure 29.73 in    
Wind  
Wind Speed 4 mph (NE)    
Max Wind Speed 10 mph    
Max Gust Speed -    
Visibility 8 miles    
Events Rain    
Averages and records for this station are not official NWS values.
T = Trace of Precipitation, MM = Missing Value Source: NWS Daily Summary

Daily Weather History Graph

Daily Weather History Graph

Search for Another Location

Airport or City:

Astronomy

Jun. 06, 2019 Rise Set
Actual Time 4:49 AM EDT 8:14 PM EDT
Civil Twilight 4:13 AM EDT 8:50 PM EDT
Nautical Twilight 3:26 AM EDT 9:38 PM EDT
Astronomical Twilight 2:26 AM EDT 10:38 PM EDT
Moon 7:55 AM EDT (6/6) 11:27 PM EDT (6/6)
Length of Visible Light 16h 37m
Length of Day
15h 24m
Waxing Crescent, 13% of the Moon is Illuminated
Jun 6
Waxing Crescent
Jun 10
First Quarter
Jun 17
Full
Jun 25
Last Quarter
Jul 2
New

Hourly Weather History & Observations

Time (EDT) Temp. Dew Point Humidity Pressure Visibility Wind Dir Wind Speed Gust Speed Precip Events Conditions
12:56 AM 53.1 °F 51.1 °F 93% 29.79 in 9.0 mi ESE 3.5 mph - 0.01 in Rain Light Rain
1:56 AM 52.0 °F 52.0 °F 100% 29.75 in 6.0 mi Calm Calm - 0.04 in Rain Light Rain
2:45 AM 51.8 °F 51.8 °F 100% 29.72 in 7.0 mi Calm Calm - 0.02 in Rain Light Rain
2:56 AM 52.0 °F 51.1 °F 97% 29.73 in 6.0 mi Calm Calm - 0.02 in Rain Light Rain
3:08 AM 51.8 °F 51.8 °F 100% 29.71 in 2.5 mi East 5.8 mph - 0.01 in Rain Light Rain
3:41 AM 51.8 °F 51.8 °F 100% 29.69 in 4.0 mi Calm Calm - 0.05 in Rain Light Rain
3:56 AM 52.0 °F 52.0 °F 100% 29.70 in 4.0 mi Calm Calm - 0.06 in Rain Light Rain
4:56 AM 52.0 °F 51.1 °F 97% 29.67 in 4.0 mi NE 5.8 mph - 0.06 in Rain Rain
5:56 AM 52.0 °F 52.0 °F 100% 29.68 in 3.0 mi NNE 4.6 mph - 0.15 in Rain Rain
6:25 AM 51.8 °F 51.8 °F 100% 29.66 in 4.0 mi NNE 3.5 mph - 0.16 in Rain Rain
6:56 AM 53.1 °F 52.0 °F 96% 29.68 in 3.0 mi NNE 3.5 mph - 0.25 in Rain Light Rain
7:56 AM 53.1 °F 52.0 °F 96% 29.68 in 10.0 mi NE 6.9 mph - 0.01 in Rain Light Rain
8:56 AM 55.0 °F 54.0 °F 96% 29.69 in 10.0 mi NE 5.8 mph - 0.02 in Rain Light Rain
9:50 AM 55.4 °F 55.4 °F 100% 29.69 in 10.0 mi NE 8.1 mph - 0.00 in   Overcast
9:56 AM 55.9 °F 54.0 °F 93% 29.70 in 10.0 mi NNE 6.9 mph - 0.00 in   Overcast
10:56 AM 57.0 °F 55.9 °F 96% 29.73 in 10.0 mi NNE 6.9 mph - N/A   Overcast
11:56 AM 60.1 °F 55.9 °F 86% 29.72 in 10.0 mi NNE 8.1 mph - N/A   Overcast
12:43 PM 62.6 °F 57.2 °F 82% 29.72 in 10.0 mi North 6.9 mph - N/A   Overcast
12:56 PM 63.0 °F 57.0 °F 81% 29.73 in 10.0 mi NNE 10.4 mph - N/A   Overcast
1:56 PM 66.0 °F 57.9 °F 75% 29.73 in 10.0 mi North 5.8 mph - N/A   Overcast
2:56 PM 66.0 °F 57.0 °F 73% 29.73 in 10.0 mi North 9.2 mph - N/A   Mostly Cloudy
3:19 PM 68.0 °F 57.2 °F 68% 29.72 in 10.0 mi Variable 5.8 mph - N/A   Scattered Clouds
3:56 PM 70.0 °F 55.0 °F 59% 29.74 in 10.0 mi NNE 9.2 mph - N/A   Partly Cloudy
4:56 PM 71.1 °F 53.1 °F 53% 29.74 in 10.0 mi NNW 6.9 mph - N/A   Clear
5:56 PM 72.0 °F 54.0 °F 53% 29.74 in 10.0 mi NNE 5.8 mph - N/A   Clear
6:56 PM 70.0 °F 53.1 °F 55% 29.75 in 10.0 mi ESE 4.6 mph - N/A   Clear
7:56 PM 61.0 °F 55.9 °F 83% 29.77 in 10.0 mi SSW 6.9 mph - N/A   Clear
8:56 PM 57.9 °F 55.0 °F 90% 29.80 in 10.0 mi SSW 10.4 mph - N/A   Clear
9:56 PM 54.0 °F 53.1 °F 97% 29.83 in 10.0 mi SSW 5.8 mph - N/A   Clear
11:56 PM 53.1 °F 52.0 °F 96% 29.85 in 10.0 mi SSW 4.6 mph - N/A   Clear